• In Romania
  • List of Countries
  • For 7 days
  • Water Temperature
  • Satellite Maps
  • Weather Map
  • Weather Widgets
  • user-avatar
    Login

    Hourly Weather Rogovo

    Today, 25 April, Wednesday

    Time Temperature Precipitation Wind Pressure Humidity
    00:00 +5°C° 0 mm 2 mps 733 mmHg 96%
    01:00 +5°C° 0 mm 2 mps 733 mmHg 96%
    02:00 +5°C° 0 mm 2 mps 733 mmHg 96%
    03:00 +5°C° 0 mm 2 mps 733 mmHg 96%
    04:00 +4°C° 0 mm 2 mps 732 mmHg 96%
    05:00 +4°C° 0 mm 2 mps 732 mmHg 95%
    06:00 +4°C° 0.1 mm 3 mps 732 mmHg 91%
    07:00 +5°C° 0.1 mm 3 mps 732 mmHg 86%
    08:00 +7°C° 0.1 mm 3 mps 732 mmHg 82%
    09:00 +7°C° 0.2 mm 4 mps 732 mmHg 79%
    10:00 +8°C° 0.2 mm 4 mps 732 mmHg 77%
    11:00 +8°C° 0.2 mm 4 mps 732 mmHg 74%
    12:00 +10°C° 0.3 mm 4 mps 731 mmHg 70%
    13:00 +11°C° 0.3 mm 4 mps 731 mmHg 65%
    14:00 +12°C° 0.3 mm 5 mps 731 mmHg 61%
    15:00 +11°C° 0.1 mm 4 mps 731 mmHg 61%
    16:00 +11°C° 0.1 mm 4 mps 731 mmHg 62%
    17:00 +11°C° 0.1 mm 4 mps 731 mmHg 62%
    18:00 +10°C° 0 mm 3 mps 730 mmHg 68%
    19:00 +8°C° 0 mm 2 mps 730 mmHg 74%
    20:00 +8°C° 0 mm 1 mps 730 mmHg 80%
    21:00 +7°C° 0.1 mm 1 mps 730 mmHg 82%
    22:00 +7°C° 0.1 mm 1 mps 729 mmHg 84%
    23:00 +7°C° 0.1 mm 1 mps 729 mmHg 86%

    Tomorrow, 26 April, Thursday

    Time Temperature Precipitation Wind Pressure Humidity
    00:00 +6°C° 0.6 mm 2 mps 728 mmHg 89%
    01:00 +6°C° 0.6 mm 2 mps 728 mmHg 92%
    02:00 +6°C° 0.6 mm 2 mps 727 mmHg 95%
    03:00 +6°C° 0.5 mm 2 mps 727 mmHg 95%
    04:00 +6°C° 0.5 mm 2 mps 726 mmHg 95%
    05:00 +7°C° 0.5 mm 3 mps 726 mmHg 95%
    06:00 +7°C° 0.2 mm 3 mps 726 mmHg 93%
    07:00 +6°C° 0.2 mm 4 mps 726 mmHg 91%
    08:00 +7°C° 0.2 mm 4 mps 726 mmHg 89%
    09:00 +7°C° 0.4 mm 4 mps 727 mmHg 89%
    10:00 +6°C° 0.4 mm 5 mps 728 mmHg 88%
    11:00 +6°C° 0.4 mm 5 mps 728 mmHg 88%
    12:00 +7°C° 0.2 mm 5 mps 729 mmHg 81%
    13:00 +8°C° 0.2 mm 5 mps 730 mmHg 75%
    14:00 +9°C° 0.2 mm 5 mps 730 mmHg 69%
    15:00 +9°C° 0.1 mm 5 mps 731 mmHg 68%
    16:00 +9°C° 0.1 mm 5 mps 731 mmHg 66%
    17:00 +10°C° 0.1 mm 4 mps 732 mmHg 65%
    18:00 +8°C° 0 mm 4 mps 732 mmHg 71%
    19:00 +7°C° 0 mm 3 mps 733 mmHg 78%
    20:00 +6°C° 0 mm 2 mps 733 mmHg 84%
    21:00 +5°C° 0 mm 3 mps 734 mmHg 85%
    22:00 +5°C° 0 mm 3 mps 734 mmHg 86%
    23:00 +4°C° 0 mm 3 mps 735 mmHg 87%

    Day after tomorrow, 27 April, Friday

    Time Temperature Precipitation Wind Pressure Humidity
    00:00 +4°C° 0 mm 3 mps 735 mmHg 90%
    01:00 +3°C° 0 mm 3 mps 735 mmHg 92%
    02:00 +4°C° 0 mm 2 mps 735 mmHg 95%
    03:00 +4°C° 0 mm 2 mps 735 mmHg 96%
    04:00 +3°C° 0 mm 2 mps 736 mmHg 96%
    05:00 +3°C° 0 mm 2 mps 736 mmHg 97%
    06:00 +4°C° 0 mm 2 mps 736 mmHg 91%
    07:00 +5°C° 0 mm 3 mps 737 mmHg 85%
    08:00 +7°C° 0 mm 3 mps 737 mmHg 80%
    09:00 +8°C° 0.1 mm 3 mps 737 mmHg 74%
    10:00 +9°C° 0.1 mm 3 mps 737 mmHg 68%
    11:00 +10°C° 0.1 mm 3 mps 738 mmHg 62%
    12:00 +11°C° 0.1 mm 3 mps 738 mmHg 57%
    13:00 +12°C° 0.1 mm 3 mps 737 mmHg 51%
    14:00 +13°C° 0.1 mm 3 mps 737 mmHg 46%
    15:00 +13°C° 0.1 mm 3 mps 737 mmHg 47%
    16:00 +13°C° 0.1 mm 3 mps 737 mmHg 47%
    17:00 +13°C° 0.1 mm 2 mps 737 mmHg 48%
    18:00 +12°C° 0.3 mm 2 mps 737 mmHg 57%
    19:00 +10°C° 0.3 mm 1 mps 738 mmHg 66%
    20:00 +8°C° 0.3 mm 1 mps 738 mmHg 75%
    21:00 +7°C° 0.1 mm 1 mps 738 mmHg 79%
    22:00 +7°C° 0.1 mm 1 mps 739 mmHg 82%
    23:00 +6°C° 0.1 mm 1 mps 739 mmHg 86%

    28 April, Saturday

    Time Temperature Precipitation Wind Pressure Humidity
    00:00 +5°C° 0 mm 2 mps 739 mmHg 89%
    01:00 +5°C° 0 mm 2 mps 739 mmHg 91%
    02:00 +4°C° 0 mm 2 mps 740 mmHg 94%
    03:00 +4°C° 0 mm 2 mps 740 mmHg 95%
    04:00 +4°C° 0 mm 2 mps 740 mmHg 96%
    05:00 +4°C° 0 mm 2 mps 741 mmHg 96%
    06:00 +4°C° 0 mm 3 mps 741 mmHg 89%
    07:00 +5°C° 0 mm 3 mps 741 mmHg 82%
    08:00 +8°C° 0 mm 3 mps 742 mmHg 74%
    09:00 +9°C° 0 mm 3 mps 742 mmHg 68%
    10:00 +10°C° 0 mm 4 mps 742 mmHg 62%
    11:00 +11°C° 0 mm 4 mps 743 mmHg 56%
    12:00 +12°C° 0.1 mm 4 mps 743 mmHg 52%
    13:00 +12°C° 0.1 mm 4 mps 743 mmHg 49%
    14:00 +13°C° 0.1 mm 4 mps 743 mmHg 45%
    15:00 +13°C° 0 mm 3 mps 743 mmHg 46%
    16:00 +13°C° 0 mm 3 mps 743 mmHg 47%
    17:00 +13°C° 0 mm 3 mps 743 mmHg 48%
    18:00 +12°C° 0 mm 2 mps 743 mmHg 55%
    19:00 +9°C° 0 mm 2 mps 743 mmHg 62%
    20:00 +9°C° 0 mm 1 mps 743 mmHg 70%
    21:00 +8°C° 0 mm 1 mps 743 mmHg 72%
    22:00 +8°C° 0 mm 1 mps 743 mmHg 73%
    23:00 +7°C° 0 mm 1 mps 744 mmHg 75%

    29 April, Sunday

    Time Temperature Precipitation Wind Pressure Humidity
    00:00 +6°C° 0 mm 2 mps 743 mmHg 76%
    01:00 +6°C° 0 mm 2 mps 743 mmHg 77%
    02:00 +6°C° 0 mm 2 mps 743 mmHg 78%
    03:00 +6°C° 0.7 mm 2 mps 743 mmHg 81%
    04:00 +5°C° 0.7 mm 3 mps 742 mmHg 84%
    05:00 +7°C° 0.7 mm 3 mps 742 mmHg 88%
    06:00 +8°C° 0.8 mm 3 mps 742 mmHg 86%
    07:00 +8°C° 0.8 mm 3 mps 741 mmHg 85%
    08:00 +8°C° 0.8 mm 4 mps 741 mmHg 83%
    09:00 +11°C° 0 mm 4 mps 741 mmHg 77%
    10:00 +14°C° 0 mm 4 mps 741 mmHg 71%
    11:00 +17°C° 0 mm 4 mps 740 mmHg 66%
    12:00 +18°C° 0.1 mm 4 mps 740 mmHg 60%
    13:00 +19°C° 0.1 mm 5 mps 740 mmHg 55%
    14:00 +20°C° 0.1 mm 5 mps 740 mmHg 50%
    15:00 +19°C° 0 mm 4 mps 740 mmHg 50%
    16:00 +19°C° 0 mm 4 mps 740 mmHg 51%
    17:00 +19°C° 0 mm 3 mps 740 mmHg 51%
    18:00 +17°C° 0 mm 3 mps 740 mmHg 59%
    19:00 +14°C° 0 mm 2 mps 740 mmHg 67%
    20:00 +12°C° 0 mm 1 mps 740 mmHg 75%
    21:00 +11°C° 0 mm 1 mps 740 mmHg 77%
    22:00 +11°C° 0 mm 1 mps 740 mmHg 79%
    23:00 +10°C° 0 mm 1 mps 740 mmHg 82%

    30 April, Monday

    Time Temperature Precipitation Wind Pressure Humidity
    00:00 +9°C° 0 mm 1 mps 740 mmHg 83%
    01:00 +9°C° 0 mm 1 mps 740 mmHg 85%
    02:00 +9°C° 0 mm 1 mps 740 mmHg 86%
    03:00 +9°C° 0 mm 1 mps 740 mmHg 86%
    04:00 +9°C° 0 mm 1 mps 740 mmHg 86%
    05:00 +7°C° 0 mm 0 mps 740 mmHg 86%
    06:00 +11°C° 0 mm 1 mps 740 mmHg 78%
    07:00 +13°C° 0 mm 1 mps 740 mmHg 69%
    08:00 +16°C° 0 mm 1 mps 740 mmHg 61%
    09:00 +18°C° 0 mm 1 mps 740 mmHg 58%
    10:00 +19°C° 0 mm 2 mps 739 mmHg 55%
    11:00 +21°C° 0 mm 2 mps 739 mmHg 52%
    12:00 +21°C° 0.6 mm 3 mps 739 mmHg 54%
    13:00 +22°C° 0.6 mm 3 mps 738 mmHg 56%
    14:00 +22°C° 0.6 mm 3 mps 737 mmHg 58%
    15:00 +22°C° 0.3 mm 3 mps 737 mmHg 58%
    16:00 +22°C° 0.3 mm 3 mps 736 mmHg 58%
    17:00 +22°C° 0.3 mm 3 mps 736 mmHg 59%
    18:00 +20°C° 0 mm 3 mps 736 mmHg 62%
    19:00 +18°C° 0 mm 3 mps 735 mmHg 66%
    20:00 +16°C° 0 mm 3 mps 735 mmHg 69%
    21:00 +16°C° 0 mm 3 mps 735 mmHg 71%
    22:00 +14°C° 0 mm 3 mps 735 mmHg 73%
    23:00 +14°C° 0 mm 3 mps 735 mmHg 75%
    Show more